Temp
-5 -4 -4 -4 -4 -4 -4 -4 -4 -4 -4 -3 -3 -4 -4 -4 -4 -4 -4 -4 -4 -5 -6 -6 -6 -6 -6 -7 -7 -7 -7 -7 -7 -7 -7 -6 -6 -4 -4 -4 -4 -3 -4 -4 -4
-4 -4 -4 -3 -3 -3 -4 -4 -3 -3 -3 -3 -3 -3 -3 -3 -4 -4 -4 -4 -4 -5 -6 -6 -6 -6 -6 -6 -6 -7 -7 -7 -6 -6 -7 -6 -5 -4 -5 -4 -5 -5 -4 -4 -4
-4 -3 -4 -3 -3 -3 -3 -3 -3 -3 -3 -3 -3 -3 -3 -3 -3 -3 -4 -4 -4 -5 -6 -5 -6 -6 -6 -6 -7 -7 -7 -7 -7 -7 -7 -7 -6 -5 -5 -5 -5 -4 -5 -5 -5
-4 -4 -3 -3 -3 -3 -3 -3 -3 -3 -3 -3 -3 -3 -3 -3 -3 -3 -3 -4 -4 -4 -6 -5 -6 -7 -6 -7 -7 -7 -7 -7 -7 -8 -7 -6 -6 -5 -5 -5 -5 -4 -5 -5 -5
-4 -4 -3 -3 -3 -3 -2 -3 -3 -3 -3 -3 -3 -3 -3 -3 -3 -3 -4 -4 -4 -4 -5 -6 -6 -7 -5 -7 -7 -8 -7 -6 -7 -7 -7 -6 -7 -6 -5 -6 -5 -5 -5 -5 -5
-4 -4 -3 -3 -3 -3 -3 -2 -2 -3 -3 -3 -3 -3 -3 -3 -4 -4 -4 -4 -4 -4 -5 -5 -6 -6 -6 -7 -8 -7 -7 -7 -7 -8 -8 -6 -7 -6 -5 -6 -5 -5 -5 -5 -5
-5 -4 -4 -3 -3 -3 -3 -3 -3 -2 -3 -3 -3 -3 -3 -3 -4 -4 -4 -4 -4 -4 -5 -5 -5 -5 -5 -8 -8 -8 -7 -7 -7 -8 -7 -6 -6 -5 -6 -6 -6 -5 -5 -5 -5
-6 -5 -4 -4 -3 -3 -3 -3 -3 -3 -2 -2 -3 -3 -3 -3 -3 -4 -4 -4 -4 -4 -5 -5 -6 -5 -5 -7 -7 -7 -7 -7 -7 -7 -7 -7 -7 -7 -6 -6 -6 -6 -5 -5 -5
-7 -6 -5 -4 -4 -3 -3 -3 -3 -3 -3 -2 -3 -3 -3 -3 -3 -4 -4 -4 -4 -4 -4 -4 -5 -5 -4 -6 -6 -7 -7 -7 -7 -7 -8 -8 -7 -7 -6 -7 -7 -6 -6 -5 -5
-8 -7 -6 -5 -4 -4 -3 -3 -3 -3 -3 -2 -3 -3 -3 -3 -3 -4 -4 -3 -4 -4 -4 -5 -4 -5 -5 -5 -6 -6 -7 -7 -7 -7 -7 -7 -6 -7 -6 -6 -7 -7 -7 -5 -5
-8 -8 -7 -6 -5 -5 -4 -4 -3 -3 -2 -2 -2 -2 -3 -3 -3 -3 -3 -4 -3 -4 -4 -4 -4 -4 -5 -5 -7 -7 -7 -6 -6 -6 -6 -7 -7 -7 -7 -6 -6 -6 -6 -6 -6
-7 -8 -8 -7 -6 -5 -5 -4 -3 -3 -3 -3 -3 -3 -3 -2 -3 -3 -3 -3 -3 -4 -4 -3 -4 -5 -6 -6 -7 -6 -6 -6 -6 -6 -6 -6 -7 -7 -7 -5 -4 -6 -6 -6 -6
-6 -7 -8 -8 -7 -6 -6 -5 -4 -3 -3 -3 -3 -2 -3 -3 -3 -3 -3 -4 -4 -4 -3 -4 -5 -5 -5 -5 -7 -7 -6 -6 -6 -6 -6 -6 -7 -7 -7 -7 -6 -6 -6 -6 -6
-6 -6 -7 -8 -9 -8 -6 -5 -5 -4 -3 -3 -3 -3 -3 -3 -3 -3 -4 -4 -4 -4 -4 -4 -5 -5 -6 -5 -7 -7 -6 -6 -6 -6 -6 -6 -6 -7 -7 -7 -6 -6 -6 -6 -6
-6 -6 -7 -7 -8 -9 -7 -7 -6 -6 -4 -4 -3 -4 -4 -3 -4 -3 -4 -3 -3 -4 -3 -4 -4 -3 -6 -7 -7 -6 -6 -6 -7 -6 -6 -6 -6 -6 -6 -6 -6 -6 -7 -6 -5
-7 -6 -7 -7 -8 -8 -9 -8 -7 -6 -4 -5 -5 -4 -4 -4 -4 -4 -5 -4 -5 -5 -3 -5 -5 -5 -6 -7 -6 -6 -7 -6 -6 -6 -6 -6 -6 -6 -6 -6 -7 -7 -6 -5 -4
-7 -7 -7 -7 -8 -8 -9 -9 -8 -6 -5 -6 -5 -4 -4 -4 -5 -4 -4 -3 -3 -3 -3 -4 -4 -5 -5 -6 -5 -7 -7 -6 -7 -6 -5 -6 -6 -6 -6 -6 -7 -7 -7 -5 -5
-7 -7 -7 -8 -8 -8 -9 -9 -8 -6 -6 -6 -8 -6 -5 -5 -5 -5 -4 -4 -4 -4 -4 -4 -4 -3 -5 -5 -5 -7 -7 -7 -5 -6 -6 -6 -6 -6 -6 -6 -6 -6 -6 -6 -6
-6 -7 -8 -9 -8 -8 -8 -7 -7 -7 -6 -8 -8 -9 -8 -6 -6 -6 -5 -4 -4 -4 -4 -4 -4 -5 -6 -5 -5 -6 -7 -6 -6 -7 -7 -6 -6 -5 -5 -6 -6 -6 -6 -6 -7
-6 -6 -8 -9 -8 -8 -7 -6 -7 -8 -8 -8 -9 -9 -9 -8 -7 -6 -6 -5 -5 -5 -5 -5 -4 -6 -6 -6 -6 -6 -7 -6 -7 -6 -6 -6 -6 -6 -6 -6 -6 -6 -6 -6 -6
-7 -7 -9 -9 -9 -8 -6 -6 -8 -9 -9 -8 -8 -8 -9 -9 -8 -7 -6 -7 -5 -5 -5 -5 -6 -5 -7 -6 -5 -6 -7 -7 -6 -7 -6 -6 -6 -6 -6 -6 -6 -6 -6 -6 -6
-8 -9 -9 -9 -9 -8 -7 -8 -9 -9 -9 -9 -8 -8 -8 -8 -8 -8 -8 -8 -7 -7 -5 -5 -6 -6 -6 -7 -7 -6 -6 -7 -7 -6 -6 -6 -6 -6 -7 -7 -6 -6 -6 -6 -6
-8 -10 -10 -9 -9 -8 -8 -8 -9 -9 -9 -9 -9 -9 -9 -9 -9 -8 -8 -8 -8 -8 -7 -6 -7 -6 -7 -7 -7 -7 -6 -6 -7 -7 -6 -6 -6 -6 -6 -6 -6 -5 -6 -6 -6
-10 -12 -13 -10 -10 -11 -9 -9 -9 -9 -9 -9 -9 -9 -9 -9 -9 -8 -8 -8 -8 -8 -8 -8 -6 -7 -6 -6 -7 -7 -7 -7 -7 -7 -7 -7 -7 -7 -7 -7 -6 -5 -5 -6 -7
-13 -15 -14 -11 -10 -10 -10 -11 -10 -9 -9 -10 -10 -10 -9 -9 -9 -8 -8 -8 -8 -8 -8 -8 -8 -7 -7 -7 -7 -7 -7 -7 -7 -6 -7 -7 -7 -7 -7 -7 -7 -6 -5 -6 -6
-15 -16 -14 -12 -11 -10 -9 -10 -10 -11 -10 -10 -10 -10 -9 -9 -9 -9 -8 -8 -8 -7 -7 -8 -8 -8 -8 -7 -7 -7 -8 -7 -7 -7 -7 -7 -7 -8 -8 -8 -8 -6 -6 -7 -6
-18 -17 -16 -14 -14 -13 -12 -11 -11 -12 -11 -10 -10 -11 -10 -10 -9 -9 -9 -8 -8 -8 -8 -8 -8 -8 -8 -7 -7 -7 -8 -8 -7 -7 -7 -7 -7 -8 -8 -8 -8 -7 -7 -7 -6
Height
5902 5904 5905 5905 5905 5905 5906 5906 5906 5907 5908 5908 5909 5909 5910 5912 5913 5915 5918 5921 5923 5927 5929 5930 5932 5935 5937 5937 5936 5936 5938 5937 5942 5939 5934 5933 5931 5927 5929 5930 5929 5928 5928 5927 5926
5899 5901 5903 5904 5905 5905 5905 5905 5906 5906 5907 5908 5909 5910 5911 5912 5914 5915 5916 5919 5922 5926 5927 5929 5931 5932 5934 5937 5935 5937 5948 5948 5945 5940 5938 5935 5934 5932 5931 5930 5934 5932 5931 5930 5930
5896 5898 5900 5902 5903 5904 5905 5905 5905 5906 5907 5908 5909 5910 5911 5912 5914 5915 5916 5918 5921 5925 5926 5929 5933 5937 5934 5935 5935 5939 5946 5947 5942 5940 5938 5936 5934 5934 5937 5935 5936 5937 5935 5934 5934
5894 5895 5896 5899 5901 5902 5903 5904 5905 5905 5906 5908 5909 5910 5911 5913 5916 5915 5917 5919 5921 5925 5927 5930 5934 5936 5935 5934 5937 5945 5946 5946 5947 5942 5940 5937 5939 5936 5938 5938 5938 5937 5939 5936 5935
5889 5892 5894 5895 5898 5900 5901 5903 5904 5905 5906 5907 5908 5910 5912 5914 5915 5916 5918 5919 5921 5923 5927 5930 5931 5934 5933 5934 5940 5946 5947 5947 5946 5941 5938 5938 5937 5939 5939 5940 5940 5940 5939 5938 5938
5884 5887 5890 5892 5894 5896 5899 5901 5902 5904 5905 5906 5908 5910 5912 5914 5915 5916 5918 5919 5921 5923 5926 5928 5931 5932 5931 5935 5943 5946 5947 5947 5948 5945 5940 5941 5942 5941 5941 5941 5942 5942 5941 5940 5940
5879 5882 5885 5888 5891 5893 5895 5898 5900 5902 5903 5905 5907 5909 5911 5913 5914 5916 5918 5919 5921 5924 5927 5928 5931 5932 5928 5932 5941 5943 5946 5946 5949 5946 5942 5943 5947 5945 5941 5942 5942 5943 5942 5942 5942
5873 5876 5879 5883 5887 5889 5892 5894 5897 5899 5901 5903 5905 5908 5910 5912 5914 5916 5918 5919 5921 5923 5925 5926 5929 5931 5927 5930 5935 5941 5944 5946 5945 5947 5941 5944 5949 5946 5946 5944 5942 5942 5943 5943 5942
5866 5870 5873 5876 5881 5884 5887 5890 5893 5895 5898 5901 5904 5906 5909 5911 5913 5915 5917 5918 5920 5923 5924 5926 5927 5930 5930 5931 5935 5939 5942 5946 5946 5946 5944 5944 5947 5948 5948 5945 5943 5944 5944 5944 5942
5861 5863 5866 5870 5874 5878 5881 5885 5887 5890 5893 5897 5901 5905 5906 5908 5911 5913 5915 5918 5919 5921 5923 5926 5927 5930 5931 5930 5932 5938 5942 5946 5946 5948 5945 5943 5944 5947 5945 5950 5943 5943 5944 5944 5944
5857 5857 5860 5862 5866 5871 5875 5878 5882 5885 5888 5891 5895 5898 5902 5905 5909 5912 5913 5916 5918 5920 5922 5924 5926 5929 5932 5931 5933 5938 5945 5948 5948 5948 5946 5941 5941 5941 5944 5949 5944 5947 5946 5947 5946
5854 5853 5854 5856 5859 5864 5868 5870 5874 5881 5887 5888 5892 5894 5899 5902 5905 5909 5911 5914 5916 5919 5920 5923 5926 5929 5931 5929 5931 5937 5943 5948 5948 5948 5948 5945 5944 5942 5940 5938 5941 5948 5948 5949 5948
5850 5849 5849 5849 5852 5856 5858 5859 5865 5868 5874 5879 5887 5890 5894 5899 5901 5905 5909 5912 5914 5916 5919 5923 5926 5928 5931 5927 5930 5935 5941 5945 5947 5947 5947 5946 5945 5942 5939 5934 5939 5947 5949 5951 5949
5843 5844 5844 5844 5847 5847 5850 5855 5859 5859 5866 5876 5879 5884 5888 5892 5896 5900 5904 5908 5910 5914 5917 5920 5922 5921 5927 5927 5929 5933 5938 5942 5947 5946 5945 5945 5943 5940 5940 5938 5938 5941 5941 5945 5948
5835 5836 5837 5838 5840 5839 5844 5845 5847 5852 5856 5871 5873 5884 5885 5890 5897 5898 5900 5901 5907 5911 5913 5919 5917 5918 5919 5926 5929 5930 5935 5939 5941 5944 5944 5943 5942 5939 5941 5941 5941 5940 5939 5940 5943
5826 5827 5829 5832 5832 5831 5837 5838 5842 5845 5848 5860 5862 5868 5874 5882 5886 5890 5894 5898 5903 5905 5907 5912 5915 5916 5918 5923 5924 5930 5933 5936 5938 5938 5938 5940 5940 5941 5940 5937 5940 5939 5938 5937 5936
5816 5816 5819 5822 5822 5825 5829 5828 5830 5831 5848 5854 5853 5860 5868 5875 5879 5882 5887 5890 5893 5898 5902 5906 5909 5911 5916 5918 5921 5924 5928 5931 5932 5933 5935 5936 5936 5938 5938 5936 5936 5935 5933 5933 5933
5804 5804 5808 5812 5811 5816 5818 5819 5817 5832 5840 5851 5850 5855 5858 5866 5870 5874 5879 5884 5889 5893 5898 5902 5904 5907 5911 5914 5918 5919 5923 5925 5929 5930 5932 5934 5934 5935 5934 5935 5934 5938 5929 5930 5928
5789 5790 5797 5802 5801 5805 5807 5806 5809 5826 5837 5846 5844 5846 5851 5857 5863 5866 5868 5878 5885 5889 5893 5896 5900 5904 5906 5910 5914 5917 5917 5924 5926 5928 5930 5933 5930 5930 5934 5934 5932 5931 5929 5928 5925
5774 5777 5786 5786 5788 5791 5794 5796 5804 5817 5825 5831 5832 5839 5847 5851 5854 5857 5861 5868 5876 5882 5887 5892 5894 5899 5902 5906 5909 5910 5917 5919 5919 5921 5924 5928 5929 5928 5927 5930 5932 5934 5931 5930 5929
5759 5763 5770 5770 5773 5776 5779 5786 5800 5810 5814 5817 5819 5824 5832 5841 5848 5851 5855 5863 5866 5874 5880 5886 5887 5892 5899 5897 5903 5906 5907 5912 5916 5918 5920 5923 5922 5922 5924 5923 5925 5926 5930 5930 5922
5743 5747 5749 5750 5759 5764 5769 5778 5790 5796 5801 5805 5809 5817 5820 5828 5838 5845 5848 5852 5860 5864 5870 5877 5880 5883 5886 5895 5897 5902 5904 5906 5908 5913 5915 5916 5917 5916 5918 5918 5919 5921 5921 5921 5919
5726 5730 5732 5736 5743 5751 5757 5764 5774 5784 5791 5797 5802 5806 5813 5818 5823 5831 5837 5847 5855 5858 5862 5870 5871 5876 5880 5886 5889 5892 5897 5901 5904 5907 5908 5910 5910 5908 5908 5912 5913 5913 5914 5915 5913
5707 5713 5714 5720 5731 5739 5745 5751 5759 5770 5780 5787 5793 5797 5802 5805 5811 5820 5827 5836 5843 5851 5857 5862 5865 5866 5871 5879 5885 5887 5890 5895 5897 5898 5902 5904 5903 5903 5906 5907 5904 5907 5909 5910 5910
5685 5693 5693 5700 5704 5709 5719 5731 5744 5753 5763 5773 5781 5784 5790 5797 5805 5812 5821 5829 5836 5843 5849 5853 5854 5861 5866 5872 5878 5882 5885 5889 5889 5892 5894 5901 5900 5900 5898 5896 5896 5901 5900 5901 5902
5662 5669 5675 5686 5688 5697 5706 5715 5726 5737 5748 5757 5766 5778 5782 5786 5797 5806 5815 5820 5827 5835 5842 5845 5845 5853 5856 5865 5870 5872 5878 5880 5881 5886 5888 5892 5896 5892 5889 5890 5888 5892 5892 5894 5896
5637 5650 5661 5670 5676 5683 5698 5703 5711 5723 5739 5747 5752 5763 5770 5776 5786 5797 5805 5811 5815 5822 5824 5833 5838 5843 5847 5855 5861 5862 5868 5874 5877 5878 5881 5882 5887 5884 5882 5883 5882 5884 5886 5887 5889
Wind_Speed
14 11 8 7 6 6 5 5 5 5 3 2 4 5 7 8 9 10 11 14 20 25 29 25 28 23 31 29 31 29 22 15 4 17 14 16 7 8 9 12 11 12 11 11 12
18 15 12 10 8 7 7 7 6 5 5 4 3 5 7 8 10 13 15 17 21 26 31 26 33 34 31 21 27 25 9 6 13 16 12 8 3 9 14 15 13 13 14 14 14
21 20 17 13 11 9 8 9 9 7 6 5 5 6 9 10 10 11 14 17 21 29 30 28 35 30 24 25 27 23 1 5 5 10 11 6 11 10 13 9 10 12 12 13 14
24 23 21 17 14 11 10 10 10 9 8 7 8 8 9 10 13 11 11 13 17 25 30 25 36 25 18 21 22 10 3 1 6 6 10 8 10 8 9 8 8 9 10 12 14
27 26 25 23 18 15 13 12 13 12 10 9 8 9 9 10 11 13 14 13 13 22 33 32 36 22 23 22 18 1 7 6 13 11 12 9 14 13 11 10 8 7 7 9 11
28 28 28 27 24 20 17 14 15 14 13 12 10 10 10 10 10 10 11 14 15 18 29 31 35 31 21 18 11 7 6 5 8 3 12 6 6 8 12 12 8 5 4 6 7
30 29 29 29 28 24 20 18 18 17 16 14 13 14 13 13 13 11 12 12 14 17 20 27 25 26 24 21 15 14 11 4 11 12 15 7 4 12 14 13 13 8 3 3 7
33 32 30 31 30 29 25 22 20 21 19 17 16 16 16 15 15 14 14 14 14 15 16 15 19 13 20 22 15 16 11 3 9 5 10 12 10 11 13 17 12 11 6 2 6
30 33 32 30 32 32 30 27 24 24 23 21 18 17 17 16 17 16 16 16 15 15 13 12 15 11 15 26 21 15 10 14 14 12 9 17 16 17 6 22 13 8 7 2 4
24 30 33 33 31 33 33 31 30 28 28 25 22 20 21 22 21 20 18 16 16 17 15 13 12 15 31 28 24 12 4 5 19 16 15 21 18 12 14 15 16 10 10 6 3
18 24 30 33 34 32 35 35 36 35 31 31 29 27 24 22 22 22 20 19 17 17 16 16 13 13 17 22 19 9 4 13 18 15 17 19 26 22 23 16 12 17 9 7 6
20 20 26 31 34 33 33 37 39 36 31 31 30 30 26 24 25 23 23 21 18 16 17 14 13 15 25 22 13 8 5 10 14 14 13 21 14 21 25 21 13 21 8 17 6
22 23 23 28 31 33 34 40 41 41 39 37 32 33 29 26 26 25 23 21 20 20 16 12 14 13 26 21 13 10 19 12 10 12 19 22 14 22 23 26 30 22 16 15 11
25 25 25 26 28 32 37 37 41 45 44 37 36 34 35 32 31 28 26 25 24 21 18 18 19 18 16 17 13 16 19 20 19 17 22 14 13 19 21 26 30 30 25 19 14
29 28 28 27 28 31 34 35 39 43 47 37 38 27 34 33 28 29 29 29 26 24 24 16 21 18 10 10 16 21 26 23 13 19 21 21 17 16 19 25 28 31 30 27 17
34 32 31 28 31 35 27 34 39 44 48 35 38 41 39 37 37 36 33 31 28 29 27 23 22 19 20 24 21 21 17 20 20 22 25 23 17 12 25 24 21 24 26 20 23
39 37 34 32 36 34 31 34 39 46 42 34 41 39 40 38 39 40 37 36 36 31 28 27 27 20 19 21 18 28 19 18 28 23 2 14 19 16 17 19 22 25 21 20 29
43 42 39 37 39 37 38 42 47 44 39 35 23 30 31 40 40 42 41 39 36 33 31 27 28 23 21 23 22 29 22 32 12 10 6 8 15 18 22 18 30 28 38 40 44
45 46 41 41 43 41 44 44 42 33 34 26 31 24 21 32 39 41 45 40 36 34 34 31 26 22 22 20 24 19 28 20 17 13 15 19 17 16 31 29 29 29 33 37 39
47 48 42 47 47 47 47 46 40 29 30 41 40 31 30 27 31 41 44 42 39 36 33 31 29 24 24 22 21 26 23 24 29 25 22 15 21 25 23 29 30 24 19 21 27
49 48 44 51 53 53 50 47 38 31 31 49 49 43 36 32 29 29 42 38 41 36 36 31 33 26 15 28 24 32 27 27 30 26 19 18 22 22 26 28 25 29 26 26 26
52 48 50 56 56 55 52 48 41 41 39 48 56 45 42 38 25 30 24 37 37 35 39 37 37 33 31 25 30 21 30 29 22 24 19 24 23 24 22 27 33 32 27 26 29
53 48 50 56 58 57 56 52 46 45 43 46 55 53 47 43 42 40 41 33 31 37 35 37 44 38 37 28 30 38 26 28 26 30 31 31 31 30 37 28 30 32 31 29 29
60 47 48 56 53 54 57 55 51 47 47 44 58 59 56 52 48 49 43 41 38 38 33 26 41 47 43 30 27 37 35 29 33 39 36 34 31 34 26 27 36 36 31 24 19
59 46 53 61 64 65 64 60 54 53 52 49 58 63 65 62 52 50 46 39 38 39 42 36 36 48 39 39 28 29 36 26 36 37 26 23 31 27 30 37 40 37 28 31 34
61 54 56 61 65 66 67 64 60 54 55 54 52 62 64 63 55 50 51 44 39 41 42 42 45 40 42 44 39 34 29 36 29 19 36 33 32 34 42 31 42 36 32 34 38
61 54 55 57 61 63 61 65 63 56 48 52 53 45 61 63 51 55 52 50 47 41 48 49 45 45 45 46 43 42 35 28 31 27 20 40 41 46 41 36 38 42 40 41 44
Wind_Direction
244 230 226 239 247 255 244 219 203 202 197 173 170 175 179 177 176 175 169 161 156 147 144 148 147 132 123 97 90 71 58 76 347 300 317 332 8 20 73 73 65 49 57 63 64
242 243 229 226 238 244 245 227 213 199 184 173 154 144 150 154 155 166 171 166 160 156 156 154 149 140 124 115 88 68 75 203 249 266 312 328 87 53 54 45 56 54 49 53 62
241 242 243 229 227 237 240 233 213 204 190 173 160 145 147 155 157 162 165 167 166 161 165 159 144 138 119 98 88 73 253 257 255 305 336 346 350 357 55 58 50 62 55 58 63
244 241 243 241 229 231 232 228 221 206 198 184 170 159 152 150 160 155 157 162 174 169 167 157 149 154 110 91 95 108 151 240 190 254 289 318 32 51 42 25 30 40 58 59 59
243 242 241 242 239 227 230 224 220 212 200 194 184 169 162 157 158 156 153 155 157 170 171 162 160 164 141 106 65 174 253 152 175 218 230 348 21 21 35 32 24 17 34 55 61
249 242 241 240 240 236 226 226 220 215 209 197 187 180 168 161 167 160 148 149 152 160 175 177 172 183 129 109 133 220 261 177 172 307 301 281 23 57 38 30 12 3 10 62 73
249 248 241 239 239 239 231 224 222 218 214 206 193 183 177 175 171 176 162 157 150 150 172 182 185 198 152 141 218 189 188 198 155 193 252 263 137 46 53 22 13 355 357 79 79
247 247 246 240 238 239 235 228 223 220 216 212 202 189 181 179 183 182 172 166 161 160 171 169 182 225 154 154 176 156 151 207 266 257 275 339 323 316 23 18 358 351 336 86 107
248 246 246 243 237 236 237 232 225 222 218 214 207 200 191 188 186 185 181 176 170 169 167 178 166 193 142 125 123 116 130 189 244 286 257 282 313 357 302 17 12 353 340 356 99
257 246 244 245 240 234 234 234 229 224 220 215 210 205 197 193 186 189 189 186 181 176 175 178 180 155 138 128 111 112 163 330 238 266 293 272 316 344 16 359 14 20 2 354 34
290 256 247 241 241 237 231 232 231 227 222 217 212 209 204 197 191 190 191 193 191 186 183 184 181 164 175 136 126 142 179 251 287 254 284 290 303 309 312 328 58 359 18 346 352
283 284 255 246 241 237 235 231 232 234 231 230 218 214 209 206 196 196 196 198 196 192 197 188 158 166 165 139 130 134 179 228 250 246 267 295 296 291 302 343 32 357 321 353 332
277 273 275 252 245 239 234 232 227 228 224 226 224 221 208 209 205 199 200 201 197 203 203 176 172 171 204 165 161 176 173 158 210 256 274 287 262 278 290 318 319 351 346 349 345
272 268 266 268 247 243 237 237 236 227 227 224 225 218 216 208 209 203 201 202 206 205 207 192 206 178 195 185 164 196 202 195 206 248 259 280 272 264 281 292 315 329 329 325 349
267 263 261 259 258 249 240 236 229 231 231 220 228 225 224 221 214 212 210 212 210 207 213 196 211 218 198 240 211 213 202 186 187 234 254 266 266 273 278 279 292 309 312 308 344
263 258 256 250 253 252 244 245 239 231 227 224 223 221 221 216 216 213 212 216 212 217 213 200 211 214 194 220 224 167 175 214 243 215 220 233 248 198 260 293 289 287 295 302 313
260 255 248 247 245 247 243 243 238 232 226 220 230 219 220 219 220 222 216 219 219 218 220 208 215 202 215 217 203 171 184 205 221 239 251 225 234 254 261 267 258 277 285 303 305
257 253 245 240 241 241 239 241 240 232 226 217 233 237 224 219 215 226 225 222 220 223 226 225 221 219 215 215 209 184 195 207 202 159 20 328 225 240 259 257 275 288 293 296 299
254 250 242 237 238 236 239 247 248 234 226 207 206 213 247 222 222 222 229 221 227 228 227 225 223 218 216 224 220 206 210 215 211 210 260 287 236 227 240 255 274 291 293 295 300
250 248 240 236 236 233 238 244 245 230 213 193 195 190 220 262 237 220 224 230 219 224 224 227 226 214 223 229 224 203 223 228 207 221 223 239 268 261 270 256 256 268 286 275 286
247 245 234 234 234 234 236 241 239 229 213 196 191 185 191 203 255 247 225 224 230 221 222 217 226 202 218 243 231 208 209 229 215 219 228 219 254 262 246 257 265 273 285 279 296
249 246 239 232 231 235 234 233 230 222 217 203 199 188 190 190 207 248 255 227 227 231 220 214 219 207 202 230 261 247 235 213 217 208 209 227 261 277 260 258 268 272 271 286 296
245 244 238 236 236 230 232 229 226 221 219 210 208 197 193 190 202 209 215 219 229 237 233 216 207 206 196 200 233 246 247 216 227 228 206 226 240 260 261 261 267 272 288 290 297
240 239 232 234 231 230 234 230 223 222 216 217 206 205 198 198 203 201 211 211 209 230 243 245 215 210 201 195 224 234 248 231 224 241 222 221 243 252 278 288 279 268 275 287 283
239 236 227 230 224 221 220 224 224 219 214 214 209 211 211 206 200 203 209 204 204 212 231 236 237 211 211 193 201 242 247 251 240 239 228 219 241 265 268 264 265 273 267 279 283
237 231 228 229 228 224 220 219 219 216 217 209 214 214 220 218 211 206 206 199 198 207 227 229 234 230 225 203 202 208 237 248 258 256 231 226 228 244 244 249 267 269 269 280 284
240 233 224 225 229 228 225 218 216 214 216 217 209 216 222 220 212 204 206 198 197 203 205 227 227 230 232 215 206 212 208 223 253 260 258 232 224 233 247 260 266 271 276 282 286